Tracking 30703 objects as of 14-Jun-2025
HD Live streaming from Space Station
objects crossing your sky now

STARLINK-30122

Track STARLINK-30122 now!
10-day predictions
STARLINK-30122 is classified as:


NORAD ID: 56688
Int'l Code: 2023-067A
Perigee: 565.5 km
Apogee: 566.9 km
Inclination: 43.0 °
Period: 95.8 minutes
Semi major axis: 6937 km
RCS: Unknown
Launch date: May 19, 2023
Source: United States (US)
Launch site: AIR FORCE EASTERN TEST RANGE (AFETR)
Your satellite tracking list
Your tracking list is empty




NASA's NSSDC Master Catalog

Two Line Element Set (TLE):
1 56688U 23067A   25164.72052487  .00000114  00000-0  23516-4 0  9991
2 56688  43.0031 296.4871 0001033 268.2530  91.8194 15.02535378114340
Source of the keplerian elements: AFSPC